Terminal Aerodrome Forecast
Issued by NWS Cleveland, OH

Home | Current Version | Previous Version | Graphics & Text | Print | Product List | Glossary On
Versions: 1 2 3 4 5 6 7 8 9 10 11 12 13 14 15 16 17 18 19 20 21 22 23 24 25
000
FTUS41 KCLE 230700 AAA
TAFCLE
TAF AMD
KCLE 230726Z 2307/2412 27010KT P6SM VCSH SCT035 OVC050
      TEMPO 2308/2312 3SM -SHSN BKN025
     FM231200 29012G18KT P6SM VCSH BKN025 OVC040
     FM231600 29015G25KT P6SM VCSH BKN035 OVC050
     FM240000 31010KT P6SM BKN045
     FM240600 30008KT P6SM SCT040=

USA.gov is the U.S. government's official web portal to all federal, state and local government web resources and services.